Location: Newark
(48.9886°N, 1.2358°E)
Time: 05:03:09
(UTC+00:00)

Transit 4A - Pass Details

Date: 23 November 2019
Orbit: 870 x 975 km, 66.8° (Epoch: 07 December)

Event Time Altitude Azimuth Distance (km) Brightness Sun altitude
Exits shadow 02:28:55 13° 42° (NE) 2,381 10.5 -46.0°
Drops below altitude 10° 02:29:54 10° 51° (NE) 2,556 10.7 -45.9°
Sets 02:33:30 0° 73° (ENE) 3,479 11.6 -45.3°
